THY266 LTFM-UZSB

Flight info

Callsign THY266
Flight time 3h 46m
Altitude 33000
Route VICEN UT380 ASMAP UL333 LATGA UT363 GURBU UL615 ARKIN UL615 ERZ UB374 INDUR N161 PEMAN N161 EDATA N199 RASAM L88 METKA B143 KRS B701 TUGTA A909 BABUM A477 NONIK A477 AKRAM A477 POGON T388 REGMO
Aircraft B739/M-SADE1E2E3FGHIJ1M3RWY/LB1

Departure

Time 2026-04-15 22:28
Airport İstanbul Airport (LTFM)

Arrival

Time 2026-04-16 02:14
Airport Bukhara International Airport (UZSB)
Time Latitude Longitude Altitude Speed Heading
2026-04-15 21:23 41.26364 28.74040 333 ft 0 kts 178°
2026-04-15 22:10 41.26374 28.74039 329 ft 2 kts 178°
2026-04-15 22:11 41.26391 28.74039 328 ft 2 kts 176°
2026-04-15 22:11 41.26407 28.74034 329 ft 2 kts 143°
2026-04-15 22:11 41.26417 28.74018 329 ft 2 kts 103°
2026-04-15 22:11 41.26416 28.73997 329 ft 2 kts 71°
2026-04-15 22:12 41.26413 28.73987 329 ft 0 kts 71°
2026-04-15 22:14 41.26414 28.73988 329 ft 1 kts 71°
2026-04-15 22:15 41.26420 28.74003 330 ft 3 kts 57°
2026-04-15 22:15 41.26453 28.74025 332 ft 8 kts
2026-04-15 22:15 41.26525 28.74026 329 ft 12 kts 359°
2026-04-15 22:15 41.26617 28.74023 331 ft 13 kts 358°
2026-04-15 22:16 41.26707 28.74020 332 ft 13 kts 359°
2026-04-15 22:16 41.26777 28.74019 330 ft 6 kts 359°
2026-04-15 22:16 41.26798 28.74018 333 ft 1 kts
2026-04-15 22:16 41.26803 28.74018 333 ft 1 kts
2026-04-15 22:17 41.26808 28.74018 331 ft 1 kts
2026-04-15 22:17 41.26813 28.74018 332 ft 1 kts
2026-04-15 22:17 41.26815 28.74018 329 ft 0 kts 360°
2026-04-15 22:18 41.26831 28.74018 333 ft 6 kts 360°
2026-04-15 22:18 41.26896 28.74017 330 ft 12 kts 359°
2026-04-15 22:18 41.26962 28.73974 333 ft 11 kts 292°
2026-04-15 22:18 41.26964 28.73877 333 ft 11 kts 270°
2026-04-15 22:19 41.26962 28.73760 333 ft 15 kts 268°
2026-04-15 22:19 41.26960 28.73622 333 ft 15 kts 269°
2026-04-15 22:19 41.26955 28.73491 331 ft 14 kts 267°
2026-04-15 22:19 41.26957 28.73364 331 ft 13 kts 270°
2026-04-15 22:20 41.26956 28.73244 332 ft 13 kts 269°
2026-04-15 22:20 41.26954 28.73126 333 ft 13 kts 270°
2026-04-15 22:20 41.26944 28.73014 329 ft 12 kts 237°
2026-04-15 22:20 41.26867 28.72989 333 ft 12 kts 179°
2026-04-15 22:21 41.26784 28.72991 333 ft 12 kts 179°
2026-04-15 22:21 41.26704 28.72992 331 ft 11 kts 179°
2026-04-15 22:21 41.26627 28.72994 331 ft 11 kts 178°
2026-04-15 22:21 41.26551 28.72997 330 ft 10 kts 179°
2026-04-15 22:22 41.26485 28.72996 333 ft 9 kts 182°
2026-04-15 22:22 41.26421 28.72995 329 ft 9 kts 179°
2026-04-15 22:22 41.26364 28.72998 332 ft 7 kts 176°
2026-04-15 22:22 41.26316 28.73002 329 ft 7 kts 176°
2026-04-15 22:23 41.26294 28.73003 331 ft 0 kts 180°
2026-04-15 22:25 41.26290 28.73003 332 ft 2 kts 180°
2026-04-15 22:25 41.26267 28.73002 329 ft 6 kts 182°
2026-04-15 22:25 41.26229 28.72971 331 ft 7 kts 225°
2026-04-15 22:26 41.26215 28.72895 332 ft 12 kts 267°
2026-04-15 22:26 41.26212 28.72779 333 ft 13 kts 268°
2026-04-15 22:26 41.26211 28.72664 333 ft 13 kts 268°
2026-04-15 22:26 41.26219 28.72544 329 ft 13 kts 309°
2026-04-15 22:27 41.26326 28.72523 329 ft 29 kts 359°
2026-04-15 22:27 41.26758 28.72516 331 ft 95 kts 359°
2026-04-15 22:27 41.27622 28.72495 332 ft 149 kts 359°
2026-04-15 22:27 41.28744 28.72492 628 ft 165 kts
2026-04-15 22:28 41.29916 28.72476 1221 ft 171 kts
2026-04-15 22:28 41.31124 28.72496 1771 ft 179 kts
2026-04-15 22:28 41.32448 28.72511 2028 ft 205 kts 353°
2026-04-15 22:28 41.33783 28.71589 2227 ft 231 kts 317°
2026-04-15 22:29 41.34617 28.69728 2581 ft 247 kts 282°
2026-04-15 22:29 41.34427 28.67498 3306 ft 245 kts 242°
2026-04-15 22:29 41.33314 28.65771 3925 ft 255 kts 221°
2026-04-15 22:29 41.31946 28.64174 4516 ft 264 kts 223°
2026-04-15 22:30 41.30597 28.62541 5301 ft 265 kts 225°
2026-04-15 22:30 41.29247 28.60848 6045 ft 269 kts 225°
2026-04-15 22:30 41.27885 28.59108 6774 ft 272 kts 226°
2026-04-15 22:30 41.26306 28.57697 7507 ft 278 kts 201°
2026-04-15 22:31 41.24416 28.57391 8227 ft 285 kts 175°
2026-04-15 22:31 41.22523 28.58362 8924 ft 296 kts 146°
2026-04-15 22:31 41.21017 28.60139 9485 ft 306 kts 138°
2026-04-15 22:31 41.19469 28.62171 9659 ft 329 kts 137°
2026-04-15 22:32 41.17803 28.64371 10052 ft 343 kts 137°
2026-04-15 22:32 41.16101 28.66582 10530 ft 352 kts 138°
2026-04-15 22:32 41.14290 28.68905 10782 ft 368 kts 138°
2026-04-15 22:32 41.12479 28.71372 11294 ft 376 kts 131°
2026-04-15 22:33 41.10975 28.74222 11963 ft 379 kts 123°
2026-04-15 22:33 41.09570 28.77192 12637 ft 381 kts 123°
2026-04-15 22:33 41.08133 28.80182 13293 ft 384 kts 124°
2026-04-15 22:33 41.06738 28.83041 13885 ft 387 kts 124°
2026-04-15 22:34 41.05160 28.85950 14438 ft 389 kts 132°
2026-04-15 22:34 41.03357 28.88580 14959 ft 392 kts 135°
2026-04-15 22:34 41.01465 28.91223 15483 ft 396 kts 135°
2026-04-15 22:34 40.99569 28.93870 16000 ft 400 kts 135°
2026-04-15 22:35 40.97642 28.96587 16512 ft 404 kts 135°
2026-04-15 22:35 40.95714 28.99331 17009 ft 408 kts 135°
2026-04-15 22:35 40.93781 29.02100 17522 ft 412 kts 135°
2026-04-15 22:35 40.91835 29.04893 18023 ft 415 kts 135°
2026-04-15 22:36 40.89864 29.07721 18500 ft 419 kts 135°
2026-04-15 22:36 40.87880 29.10561 18932 ft 423 kts 135°
2026-04-15 22:36 40.85957 29.13522 19369 ft 427 kts 127°
2026-04-15 22:36 40.84409 29.16894 19809 ft 433 kts 117°
2026-04-15 22:37 40.83293 29.20539 20242 ft 437 kts 107°
2026-04-15 22:37 40.82544 29.24440 20678 ft 440 kts 104°
2026-04-15 22:37 40.81817 29.28461 21082 ft 444 kts 104°
2026-04-15 22:37 40.81080 29.32361 21489 ft 447 kts 105°
2026-04-15 22:38 40.80295 29.36351 21889 ft 450 kts 105°
2026-04-15 22:38 40.79491 29.40364 22308 ft 453 kts 105°
2026-04-15 22:38 40.78677 29.44409 22706 ft 457 kts 105°
2026-04-15 22:38 40.77862 29.48476 23097 ft 460 kts 105°
2026-04-15 22:39 40.77040 29.52580 23494 ft 463 kts 105°
2026-04-15 22:39 40.76218 29.56677 23858 ft 466 kts 105°
2026-04-15 22:39 40.75378 29.60860 24153 ft 470 kts 105°
2026-04-15 22:39 40.74541 29.65011 24471 ft 472 kts 105°
2026-04-15 22:40 40.73722 29.69241 24793 ft 475 kts 102°
2026-04-15 22:40 40.73262 29.73582 25086 ft 479 kts 92°
2026-04-15 22:40 40.73178 29.77977 25397 ft 481 kts 90°
2026-04-15 22:41 40.73126 29.86848 26000 ft 487 kts 90°
2026-04-15 22:41 40.73071 29.91320 26292 ft 490 kts 90°
2026-04-15 22:41 40.72992 29.95808 26576 ft 493 kts 90°
2026-04-15 22:41 40.72904 30.00242 26866 ft 495 kts 90°
2026-04-15 22:42 40.72728 30.04912 27153 ft 499 kts 96°
2026-04-15 22:42 40.72131 30.09419 27415 ft 502 kts 105°
2026-04-15 22:42 40.71051 30.13739 27673 ft 504 kts 111°
2026-04-15 22:42 40.69813 30.18082 27956 ft 506 kts 111°
2026-04-15 22:43 40.68593 30.22441 28211 ft 509 kts 110°
2026-04-15 22:43 40.67408 30.26855 28472 ft 512 kts 109°
2026-04-15 22:43 40.66427 30.31370 28701 ft 516 kts 101°
2026-04-15 22:43 40.65916 30.36061 28951 ft 517 kts 95°
2026-04-15 22:44 40.65569 30.40788 29237 ft 519 kts 94°
2026-04-15 22:44 40.65241 30.45491 29543 ft 520 kts 94°
2026-04-15 22:44 40.64890 30.50245 29911 ft 520 kts 95°
2026-04-15 22:44 40.64512 30.54996 30290 ft 519 kts 95°
2026-04-15 22:45 40.64118 30.59683 30582 ft 519 kts 95°
2026-04-15 22:45 40.63710 30.64458 30855 ft 520 kts 95°
2026-04-15 22:45 40.63309 30.69130 31155 ft 520 kts 96°
2026-04-15 22:45 40.62698 30.73815 31447 ft 520 kts 104°
2026-04-15 22:46 40.61751 30.78407 31759 ft 519 kts 106°
2026-04-15 22:46 40.60744 30.82965 32048 ft 519 kts 107°
2026-04-15 22:46 40.59723 30.87538 32284 ft 519 kts 106°
2026-04-15 22:46 40.58722 30.92083 32559 ft 519 kts 106°
2026-04-15 22:47 40.57734 30.96650 32918 ft 517 kts 105°
2026-04-15 22:47 40.57095 30.99638 33086 ft 517 kts 105°
2026-04-15 22:47 40.56126 31.04191 33279 ft 518 kts 105°
2026-04-15 22:47 40.54830 31.10281 33607 ft 519 kts 105°
2026-04-15 22:48 40.53852 31.14862 33885 ft 518 kts 105°
2026-04-15 22:48 40.53198 31.17915 34092 ft 516 kts 105°
2026-04-15 22:48 40.52229 31.22416 34336 ft 515 kts 106°
2026-04-15 22:48 40.51262 31.26894 34653 ft 512 kts 106°
2026-04-15 22:49 40.50289 31.31382 34945 ft 509 kts 106°
2026-04-15 22:49 40.49315 31.35875 35137 ft 509 kts 106°
2026-04-15 22:49 40.47364 31.44852 35159 ft 511 kts 106°
2026-04-15 22:50 40.45407 31.53819 35177 ft 509 kts 106°
2026-04-15 22:50 40.43455 31.62735 35178 ft 507 kts 106°
2026-04-15 22:51 40.41520 31.71543 35167 ft 506 kts 106°
2026-04-15 22:51 40.39558 31.80445 35175 ft 506 kts 106°
2026-04-15 22:52 40.37590 31.89339 35162 ft 508 kts 106°
2026-04-15 22:52 40.35609 31.98243 35161 ft 509 kts 106°
2026-04-15 22:53 40.33626 32.07061 35166 ft 510 kts 106°
2026-04-15 22:53 40.31694 32.16086 35169 ft 512 kts 104°
2026-04-15 22:54 40.29943 32.25163 35144 ft 514 kts 103°
2026-04-15 22:54 40.28186 32.34251 35152 ft 515 kts 104°
2026-04-15 22:55 40.26400 32.43275 35163 ft 516 kts 104°
2026-04-15 22:55 40.25784 32.46358 35152 ft 517 kts 104°
2026-04-15 22:56 40.24449 32.53011 35164 ft 517 kts 104°
2026-04-15 22:56 40.22616 32.62120 35147 ft 518 kts 104°
2026-04-15 22:57 40.20776 32.71229 35155 ft 517 kts 104°
2026-04-15 22:57 40.18930 32.80336 35164 ft 518 kts 104°
2026-04-15 22:58 40.17079 32.89429 35145 ft 518 kts 104°
2026-04-15 22:58 40.15250 32.98553 35130 ft 518 kts 100°
2026-04-15 22:59 40.14683 33.07791 35135 ft 512 kts 84°
2026-04-15 22:59 40.15043 33.17165 35138 ft 512 kts 83°
2026-04-15 23:00 40.15386 33.26473 35137 ft 513 kts 84°
2026-04-15 23:00 40.15660 33.35791 35155 ft 514 kts 84°
2026-04-15 23:01 40.15901 33.44964 35140 ft 515 kts 84°
2026-04-15 23:01 40.16142 33.54346 35130 ft 516 kts 84°
2026-04-15 23:02 40.16377 33.63658 35136 ft 517 kts 84°
2026-04-15 23:02 40.16609 33.73095 35123 ft 518 kts 84°
2026-04-15 23:03 40.16790 33.82515 35125 ft 520 kts 88°
2026-04-15 23:03 40.15758 33.91923 35138 ft 524 kts 100°
2026-04-15 23:04 40.14385 34.01284 35118 ft 522 kts 97°
2026-04-15 23:04 40.13397 34.10677 35117 ft 522 kts 95°
2026-04-15 23:05 40.12464 34.20084 35129 ft 522 kts 95°
2026-04-15 23:05 40.11469 34.29475 35125 ft 522 kts 95°
2026-04-15 23:06 40.10428 34.38874 35124 ft 523 kts 96°
2026-04-15 23:06 40.09374 34.48275 35124 ft 523 kts 96°
2026-04-15 23:07 40.08323 34.57605 35125 ft 522 kts 96°
2026-04-15 23:07 40.07264 34.66956 35137 ft 522 kts 96°
2026-04-15 23:08 40.06191 34.76367 35141 ft 522 kts 96°
2026-04-15 23:08 40.05115 34.85733 35139 ft 521 kts 96°
2026-04-15 23:09 40.04033 34.95083 35146 ft 521 kts 96°
2026-04-15 23:09 40.02945 35.04420 35146 ft 520 kts 96°
2026-04-15 23:10 40.01850 35.13745 35142 ft 520 kts 96°
2026-04-15 23:10 40.00747 35.23080 35156 ft 520 kts 96°
2026-04-15 23:11 39.99638 35.32406 35148 ft 520 kts 96°
2026-04-15 23:11 39.98506 35.41725 35143 ft 520 kts 96°
2026-04-15 23:12 39.97333 35.50973 35145 ft 520 kts 97°
2026-04-15 23:12 39.96143 35.60282 35142 ft 520 kts 97°
2026-04-15 23:13 39.94955 35.69579 35161 ft 520 kts 97°
2026-04-15 23:13 39.93761 35.78878 35166 ft 520 kts 97°
2026-04-15 23:14 39.92567 35.88130 35182 ft 520 kts 97°
2026-04-15 23:14 39.91351 35.97466 35181 ft 520 kts 97°
2026-04-15 23:15 39.90131 36.06757 35185 ft 520 kts 97°
2026-04-15 23:15 39.88908 36.16024 35179 ft 520 kts 97°
2026-04-15 23:16 39.87688 36.25231 35172 ft 520 kts 97°
2026-04-15 23:16 39.86373 36.34524 35174 ft 520 kts 98°
2026-04-15 23:17 39.85047 36.43728 35179 ft 519 kts 97°
2026-04-15 23:17 39.83838 36.53010 35194 ft 518 kts 97°
2026-04-15 23:18 39.82626 36.62237 35194 ft 518 kts 97°
2026-04-15 23:18 39.81381 36.71469 35201 ft 518 kts 97°
2026-04-15 23:19 39.80128 36.80682 35213 ft 517 kts 98°
2026-04-15 23:19 39.79105 36.89899 35208 ft 513 kts 88°
2026-04-15 23:20 39.79599 36.99056 35224 ft 506 kts 78°
2026-04-15 23:20 39.80450 37.08134 35213 ft 506 kts 78°
2026-04-15 23:21 39.81234 37.17243 35190 ft 507 kts 79°
2026-04-15 23:21 39.81959 37.26300 35190 ft 507 kts 79°
2026-04-15 23:22 39.82675 37.35381 35168 ft 507 kts 79°
2026-04-15 23:22 39.83398 37.44552 35174 ft 507 kts 80°
2026-04-15 23:23 39.84100 37.53677 35164 ft 507 kts 80°
2026-04-15 23:23 39.84787 37.62742 35165 ft 507 kts 80°
2026-04-15 23:24 39.85474 37.71880 35160 ft 507 kts 80°
2026-04-15 23:24 39.86154 37.81007 35115 ft 505 kts 82°
2026-04-15 23:25 39.86822 37.90074 35140 ft 504 kts 82°
2026-04-15 23:25 39.87487 37.99186 35159 ft 504 kts 82°
2026-04-15 23:26 39.88150 38.08283 35152 ft 505 kts 82°
2026-04-15 23:26 39.88810 38.17403 35160 ft 506 kts 82°
2026-04-15 23:27 39.89464 38.26527 35164 ft 507 kts 82°
2026-04-15 23:27 39.90111 38.35685 35171 ft 509 kts 82°
2026-04-15 23:28 39.90750 38.44823 35179 ft 509 kts 82°
2026-04-15 23:28 39.91388 38.54060 35186 ft 509 kts 82°
2026-04-15 23:29 39.92013 38.63199 35188 ft 510 kts 82°
2026-04-15 23:29 39.92635 38.72422 35171 ft 511 kts 82°
2026-04-15 23:30 39.93250 38.81621 35175 ft 511 kts 82°
2026-04-15 23:30 39.93816 38.90875 35176 ft 511 kts 85°
2026-04-15 23:31 39.93948 39.00078 35192 ft 511 kts 88°
2026-04-15 23:31 39.94032 39.09328 35183 ft 510 kts 86°
2026-04-15 23:32 39.94183 39.18572 35186 ft 510 kts 86°
2026-04-15 23:32 39.94333 39.27779 35169 ft 510 kts 86°
2026-04-15 23:33 39.94469 39.36937 35171 ft 509 kts 86°
2026-04-15 23:33 39.94598 39.46183 35180 ft 509 kts 86°
2026-04-15 23:34 39.94721 39.55411 35181 ft 509 kts 86°
2026-04-15 23:36 39.95083 39.86215 35180 ft 510 kts 87°
2026-04-15 23:36 39.95176 39.95461 35183 ft 511 kts 87°
2026-04-15 23:37 39.95256 40.04720 35179 ft 510 kts 87°
2026-04-15 23:37 39.95328 40.13970 35169 ft 510 kts 87°
2026-04-15 23:38 39.95395 40.23214 35172 ft 510 kts 87°
2026-04-15 23:38 39.95454 40.32367 35175 ft 510 kts 87°
2026-04-15 23:39 39.95506 40.41631 35181 ft 509 kts 87°
2026-04-15 23:39 39.95551 40.50863 35184 ft 509 kts 87°
2026-04-15 23:40 39.95589 40.60101 35184 ft 509 kts 87°
2026-04-15 23:40 39.95621 40.69326 35180 ft 509 kts 87°
2026-04-15 23:41 39.95645 40.78590 35176 ft 510 kts 87°
2026-04-15 23:41 39.95662 40.87776 35186 ft 510 kts 87°
2026-04-15 23:42 39.95672 40.97016 35184 ft 510 kts 87°
2026-04-15 23:42 39.95676 41.06276 35187 ft 510 kts 87°
2026-04-15 23:43 39.95673 41.15509 35185 ft 510 kts 87°
2026-04-15 23:43 39.95831 41.24744 35185 ft 508 kts 82°
2026-04-15 23:44 39.96542 41.33862 35193 ft 506 kts 80°
2026-04-15 23:44 39.97308 41.42955 35186 ft 507 kts 81°
2026-04-15 23:45 39.98000 41.52103 35185 ft 506 kts 81°
2026-04-15 23:45 39.98651 41.61199 35181 ft 506 kts 81°
2026-04-15 23:46 39.99298 41.70287 35181 ft 505 kts 81°
2026-04-15 23:46 39.99950 41.79401 35179 ft 503 kts 81°
2026-04-15 23:47 40.00617 41.88568 35175 ft 503 kts 81°
2026-04-15 23:47 40.01265 41.97547 35178 ft 502 kts 81°
2026-04-15 23:48 40.01913 42.06653 35184 ft 501 kts 81°
2026-04-15 23:48 40.02549 42.15717 35185 ft 501 kts 81°
2026-04-15 23:49 40.03178 42.24773 35195 ft 501 kts 82°
2026-04-15 23:49 40.03797 42.33790 35183 ft 501 kts 82°
2026-04-15 23:50 40.04410 42.42812 35191 ft 501 kts 82°
2026-04-15 23:50 40.04994 42.51938 35190 ft 501 kts 82°
2026-04-15 23:51 40.05816 42.65470 35191 ft 501 kts 82°
2026-04-15 23:51 40.06364 42.74535 35193 ft 501 kts 82°
2026-04-15 23:52 40.06907 42.83592 35200 ft 500 kts 82°
2026-04-15 23:52 40.07442 42.92635 35221 ft 499 kts 82°
2026-04-15 23:53 40.07970 43.01674 35207 ft 500 kts 82°
2026-04-15 23:53 40.08494 43.10726 35204 ft 500 kts 82°
2026-04-15 23:54 40.09011 43.19771 35206 ft 501 kts 82°
2026-04-15 23:54 40.09520 43.28801 35212 ft 501 kts 82°
2026-04-15 23:55 40.10026 43.37897 35222 ft 501 kts 82°
2026-04-15 23:55 40.10519 43.46966 35221 ft 501 kts 83°
2026-04-15 23:56 40.11005 43.56040 35220 ft 500 kts 83°
2026-04-15 23:56 40.11483 43.65054 35217 ft 499 kts 82°
2026-04-15 23:57 40.12469 43.73971 35220 ft 494 kts 75°
2026-04-15 23:57 40.13812 43.82763 35218 ft 492 kts 75°
2026-04-15 23:58 40.15132 43.91539 35217 ft 491 kts 75°
2026-04-15 23:58 40.16366 44.00146 35216 ft 490 kts 76°
2026-04-15 23:59 40.17595 44.08907 35207 ft 489 kts 76°
2026-04-15 23:59 40.18814 44.17649 35195 ft 488 kts 76°
2026-04-16 00:00 40.20029 44.26391 35190 ft 487 kts 76°
2026-04-16 00:00 40.21226 44.35044 35186 ft 486 kts 77°
2026-04-16 00:01 40.22423 44.43749 35189 ft 485 kts 77°
2026-04-16 00:01 40.23612 44.52444 35189 ft 485 kts 77°
2026-04-16 00:02 40.24801 44.61119 35192 ft 484 kts 77°
2026-04-16 00:02 40.26039 44.69781 35203 ft 484 kts 76°
2026-04-16 00:03 40.27284 44.78451 35209 ft 484 kts 77°
2026-04-16 00:03 40.28505 44.87049 35216 ft 484 kts 77°
2026-04-16 00:04 40.29728 44.95745 35193 ft 485 kts 77°
2026-04-16 00:04 40.30942 45.04438 35198 ft 484 kts 77°
2026-04-16 00:05 40.32149 45.13121 35205 ft 485 kts 77°
2026-04-16 00:05 40.33350 45.21807 35188 ft 485 kts 77°
2026-04-16 00:06 40.34550 45.30542 35195 ft 486 kts 77°
2026-04-16 00:06 40.35742 45.39274 35192 ft 486 kts 77°
2026-04-16 00:07 40.36929 45.48017 35193 ft 487 kts 77°
2026-04-16 00:07 40.38111 45.56766 35197 ft 487 kts 77°
2026-04-16 00:08 40.39276 45.65429 35196 ft 487 kts 76°
2026-04-16 00:08 40.40537 45.74195 35194 ft 487 kts 76°
2026-04-16 00:09 40.41827 45.82905 35201 ft 486 kts 76°
2026-04-16 00:09 40.43103 45.91623 35198 ft 486 kts 76°
2026-04-16 00:10 40.44361 46.00336 35199 ft 485 kts 76°
2026-04-16 00:10 40.45600 46.08989 35216 ft 485 kts 76°
2026-04-16 00:11 40.46840 46.17705 35200 ft 485 kts 76°
2026-04-16 00:11 40.48072 46.26408 35202 ft 485 kts 76°
2026-04-16 00:12 40.49299 46.35117 35198 ft 485 kts 76°
2026-04-16 00:12 40.50521 46.43845 35196 ft 485 kts 76°
2026-04-16 00:13 40.51736 46.52572 35195 ft 486 kts 76°
2026-04-16 00:13 40.52940 46.61265 35193 ft 486 kts 76°
2026-04-16 00:14 40.54145 46.70025 35200 ft 487 kts 76°
2026-04-16 00:14 40.55347 46.78806 35193 ft 488 kts 76°
2026-04-16 00:15 40.56542 46.87598 35196 ft 488 kts 76°
2026-04-16 00:15 40.57732 46.96400 35196 ft 489 kts 76°
2026-04-16 00:16 40.58911 47.05170 35196 ft 490 kts 76°
2026-04-16 00:16 40.60091 47.13997 35197 ft 490 kts 76°
2026-04-16 00:17 40.60689 47.22933 35198 ft 495 kts 89°
2026-04-16 00:17 40.60381 47.32014 35195 ft 496 kts 90°
2026-04-16 00:18 40.60039 47.41082 35198 ft 496 kts 90°
2026-04-16 00:18 40.59750 47.50131 35202 ft 496 kts 90°
2026-04-16 00:19 40.59479 47.59230 35205 ft 496 kts 90°
2026-04-16 00:19 40.59202 47.68294 35209 ft 496 kts 90°
2026-04-16 00:20 40.58916 47.77314 35212 ft 496 kts 90°
2026-04-16 00:20 40.58621 47.86369 35206 ft 495 kts 90°
2026-04-16 00:21 40.58332 47.95433 35202 ft 495 kts 88°
2026-04-16 00:21 40.58526 48.04458 35220 ft 492 kts 84°
2026-04-16 00:22 40.58857 48.13384 35206 ft 493 kts 85°
2026-04-16 00:22 40.59099 48.22439 35220 ft 493 kts 85°
2026-04-16 00:23 40.59328 48.31453 35216 ft 493 kts 85°
2026-04-16 00:23 40.59554 48.40463 35215 ft 492 kts 85°
2026-04-16 00:24 40.59774 48.49456 35223 ft 492 kts 85°
2026-04-16 00:24 40.59987 48.58406 35228 ft 492 kts 86°
2026-04-16 00:25 40.60193 48.67416 35222 ft 491 kts 86°
2026-04-16 00:25 40.60359 48.74890 35233 ft 491 kts 86°
2026-04-16 00:26 40.60552 48.83856 35226 ft 490 kts 86°
2026-04-16 00:26 40.60739 48.92839 35221 ft 489 kts 86°
2026-04-16 00:27 40.60917 49.01782 35217 ft 488 kts 86°
2026-04-16 00:27 40.61088 49.10636 35212 ft 486 kts 86°
2026-04-16 00:28 40.61258 49.19585 35209 ft 485 kts 86°
2026-04-16 00:28 40.61674 49.28368 35204 ft 482 kts 83°
2026-04-16 00:29 40.62235 49.37147 35200 ft 481 kts 83°
2026-04-16 00:29 40.62774 49.45916 35188 ft 480 kts 84°
2026-04-16 00:30 40.63276 49.54676 35189 ft 478 kts 84°
2026-04-16 00:30 40.63734 49.62977 35183 ft 477 kts 84°
2026-04-16 00:31 40.64209 49.71696 35187 ft 476 kts 84°
2026-04-16 00:31 40.64675 49.80341 35185 ft 475 kts 84°
2026-04-16 00:32 40.65137 49.89025 35184 ft 474 kts 85°
2026-04-16 00:32 40.65592 49.97691 35183 ft 473 kts 85°
2026-04-16 00:33 40.66039 50.06337 35179 ft 472 kts 85°
2026-04-16 00:33 40.66478 50.14967 35182 ft 471 kts 85°
2026-04-16 00:34 40.66910 50.23568 35180 ft 470 kts 85°
2026-04-16 00:34 40.67330 50.32057 35176 ft 470 kts 85°
2026-04-16 00:35 40.67750 50.40655 35173 ft 469 kts 85°
2026-04-16 00:35 40.68162 50.49253 35174 ft 469 kts 85°
2026-04-16 00:36 40.68565 50.57829 35174 ft 468 kts 85°
2026-04-16 00:36 40.68961 50.66385 35171 ft 468 kts 85°
2026-04-16 00:37 40.69351 50.74937 35173 ft 467 kts 85°
2026-04-16 00:37 40.69734 50.83494 35176 ft 467 kts 85°
2026-04-16 00:38 40.70112 50.92044 35174 ft 467 kts 85°
2026-04-16 00:38 40.70483 51.00589 35176 ft 467 kts 85°
2026-04-16 00:39 40.70849 51.09144 35175 ft 467 kts 86°
2026-04-16 00:39 40.71206 51.17652 35170 ft 467 kts 86°
2026-04-16 00:40 40.71558 51.26206 35181 ft 468 kts 85°
2026-04-16 00:40 40.71903 51.34776 35172 ft 468 kts 86°
2026-04-16 00:41 40.72240 51.43345 35172 ft 469 kts 87°
2026-04-16 00:41 40.72074 51.47652 35167 ft 470 kts 98°
2026-04-16 00:41 40.71352 51.51867 35183 ft 470 kts 107°
2026-04-16 00:42 40.68593 51.59621 35173 ft 471 kts 119°
2026-04-16 00:42 40.65358 51.67127 35177 ft 472 kts 120°
2026-04-16 00:43 40.62127 51.74678 35164 ft 474 kts 119°
2026-04-16 00:43 40.58920 51.82273 35171 ft 474 kts 119°
2026-04-16 00:44 40.55753 51.89791 35163 ft 471 kts 119°
2026-04-16 00:44 40.52580 51.97304 35158 ft 468 kts 119°
2026-04-16 00:45 40.49419 52.04766 35156 ft 465 kts 119°
2026-04-16 00:45 40.46278 52.12162 35168 ft 465 kts 119°
2026-04-16 00:46 40.43110 52.19607 35178 ft 468 kts 119°
2026-04-16 00:46 40.39912 52.27101 35159 ft 472 kts 119°
2026-04-16 00:47 40.36680 52.34657 35176 ft 476 kts 119°
2026-04-16 00:47 40.33442 52.42207 35165 ft 479 kts 119°
2026-04-16 00:48 40.30184 52.49784 35166 ft 479 kts 119°
2026-04-16 00:48 40.26899 52.57411 35155 ft 474 kts 119°
2026-04-16 00:50 40.12241 52.85555 35186 ft 467 kts 124°
2026-04-16 00:51 40.08553 52.92556 35186 ft 469 kts 124°
2026-04-16 00:51 40.05086 52.99777 35169 ft 471 kts 114°
2026-04-16 00:52 40.03210 53.07937 35174 ft 470 kts 96°
2026-04-16 00:52 40.02406 53.16398 35181 ft 472 kts 95°
2026-04-16 00:53 40.01630 53.24931 35174 ft 473 kts 96°
2026-04-16 00:53 40.00809 53.33390 35172 ft 474 kts 96°
2026-04-16 00:54 39.99947 53.41919 35173 ft 474 kts 96°
2026-04-16 00:54 39.99074 53.50442 35163 ft 473 kts 96°
2026-04-16 00:55 39.98201 53.58907 35179 ft 472 kts 96°
2026-04-16 00:55 39.97319 53.67426 35165 ft 472 kts 96°
2026-04-16 00:56 39.96435 53.75891 35167 ft 471 kts 96°
2026-04-16 00:56 39.95546 53.84354 35166 ft 471 kts 96°
2026-04-16 00:57 39.94209 53.96968 35178 ft 471 kts 96°
2026-04-16 00:58 39.93300 54.05467 35172 ft 472 kts 97°
2026-04-16 00:58 39.92388 54.13928 35174 ft 472 kts 97°
2026-04-16 00:59 39.91469 54.22407 35175 ft 473 kts 97°
2026-04-16 00:59 39.90541 54.30902 35177 ft 473 kts 97°
2026-04-16 01:00 39.89608 54.39393 35167 ft 474 kts 97°
2026-04-16 01:00 39.88499 54.47868 35162 ft 476 kts 103°
2026-04-16 01:01 39.86706 54.56111 35167 ft 477 kts 105°
2026-04-16 01:01 39.84855 54.64412 35156 ft 478 kts 104°
2026-04-16 01:02 39.83089 54.72698 35162 ft 478 kts 103°
2026-04-16 01:02 39.82342 54.81297 35149 ft 475 kts 86°
2026-04-16 01:03 39.82684 54.89805 35146 ft 475 kts 85°
2026-04-16 01:03 39.82996 54.98460 35141 ft 474 kts 86°
2026-04-16 01:04 39.83233 55.06916 35138 ft 474 kts 86°
2026-04-16 01:04 39.83506 55.15523 35135 ft 473 kts 86°
2026-04-16 01:05 39.83788 55.24068 35134 ft 472 kts 86°
2026-04-16 01:05 39.84059 55.32591 35133 ft 471 kts 86°
2026-04-16 01:06 39.84320 55.41125 35132 ft 471 kts 86°
2026-04-16 01:06 39.84572 55.49588 35132 ft 471 kts 86°
2026-04-16 01:07 39.84820 55.58130 35132 ft 471 kts 86°
2026-04-16 01:07 39.85061 55.66636 35134 ft 472 kts 86°
2026-04-16 01:08 39.85297 55.75199 35131 ft 473 kts 86°
2026-04-16 01:08 39.85527 55.83756 35125 ft 473 kts 86°
2026-04-16 01:09 39.85751 55.92331 35124 ft 474 kts 86°
2026-04-16 01:09 39.85967 56.00865 35125 ft 475 kts 86°
2026-04-16 01:10 39.86179 56.09470 35120 ft 476 kts 86°
2026-04-16 01:10 39.86386 56.18103 35118 ft 478 kts 86°
2026-04-16 01:11 39.86588 56.26766 35116 ft 478 kts 86°
2026-04-16 01:11 39.86789 56.35436 35110 ft 479 kts 86°
2026-04-16 01:12 39.86985 56.44082 35111 ft 480 kts 87°
2026-04-16 01:12 39.87175 56.52762 35111 ft 480 kts 87°
2026-04-16 01:13 39.87358 56.61455 35104 ft 481 kts 87°
2026-04-16 01:13 39.87534 56.70153 35107 ft 481 kts 87°
2026-04-16 01:14 39.87705 56.78866 35108 ft 481 kts 87°
2026-04-16 01:14 39.87869 56.87581 35106 ft 481 kts 87°
2026-04-16 01:15 39.88000 56.94835 35104 ft 481 kts 87°
2026-04-16 01:15 39.88152 57.03557 35100 ft 481 kts 87°
2026-04-16 01:16 39.88298 57.12285 35101 ft 481 kts 87°
2026-04-16 01:16 39.88435 57.20921 35096 ft 481 kts 87°
2026-04-16 01:17 39.88568 57.29650 35096 ft 481 kts 87°
2026-04-16 01:17 39.88694 57.38388 35093 ft 482 kts 88°
2026-04-16 01:18 39.88814 57.47110 35091 ft 482 kts 88°
2026-04-16 01:18 39.88927 57.55841 35089 ft 483 kts 88°
2026-04-16 01:19 39.89034 57.64595 35086 ft 483 kts 88°
2026-04-16 01:19 39.89134 57.73332 35081 ft 484 kts 88°
2026-04-16 01:20 39.89228 57.82129 35078 ft 484 kts 88°
2026-04-16 01:20 39.89314 57.90852 35080 ft 485 kts 88°
2026-04-16 01:21 39.89395 57.99635 35074 ft 485 kts 88°
2026-04-16 01:21 39.89470 58.08430 35074 ft 486 kts 88°
2026-04-16 01:22 39.89539 58.17253 35074 ft 486 kts 88°
2026-04-16 01:22 39.89624 58.26051 35067 ft 486 kts 88°
2026-04-16 01:23 39.89713 58.34811 35065 ft 486 kts 88°
2026-04-16 01:23 39.89795 58.43606 35066 ft 486 kts 88°
2026-04-16 01:24 39.89868 58.52401 35056 ft 486 kts 88°
2026-04-16 01:24 39.89933 58.61178 35060 ft 486 kts 88°
2026-04-16 01:25 39.89991 58.69997 35051 ft 486 kts 88°
2026-04-16 01:25 39.90044 58.78823 35054 ft 486 kts 89°
2026-04-16 01:26 39.90089 58.87536 35057 ft 486 kts 89°
2026-04-16 01:26 39.90128 58.96438 35055 ft 486 kts 89°
2026-04-16 01:27 39.90162 59.05246 35054 ft 486 kts 89°
2026-04-16 01:27 39.90181 59.14054 35048 ft 486 kts 89°
2026-04-16 01:28 39.90181 59.22821 35047 ft 486 kts 89°
2026-04-16 01:28 39.90177 59.31569 35052 ft 487 kts 89°
2026-04-16 01:29 39.90164 59.40413 35045 ft 487 kts 90°
2026-04-16 01:29 39.90127 59.49271 35054 ft 487 kts 90°
2026-04-16 01:30 39.90081 59.58093 35050 ft 487 kts 90°
2026-04-16 01:30 39.90031 59.66928 35055 ft 487 kts 90°
2026-04-16 01:31 39.89976 59.75704 35052 ft 487 kts 90°
2026-04-16 01:31 39.89914 59.84525 35050 ft 487 kts 90°
2026-04-16 01:32 39.89846 59.93343 35055 ft 487 kts 90°
2026-04-16 01:32 39.89770 60.02179 35054 ft 487 kts 90°
2026-04-16 01:33 39.89689 60.10920 35054 ft 487 kts 91°
2026-04-16 01:33 39.89600 60.19857 35055 ft 488 kts 91°
2026-04-16 01:34 39.89506 60.28635 35055 ft 488 kts 91°
2026-04-16 01:34 39.89372 60.37476 35050 ft 488 kts 91°
2026-04-16 01:35 39.89211 60.46312 35049 ft 488 kts 92°
2026-04-16 01:35 39.89045 60.55149 35054 ft 488 kts 92°
2026-04-16 01:36 39.88878 60.63995 35055 ft 489 kts 92°
2026-04-16 01:36 39.88706 60.72791 35058 ft 489 kts 92°
2026-04-16 01:37 39.88527 60.81624 35056 ft 489 kts 92°
2026-04-16 01:37 39.88338 60.90561 35056 ft 490 kts 93°
2026-04-16 01:38 39.88147 60.99328 35055 ft 490 kts 93°
2026-04-16 01:38 39.87945 61.08245 35057 ft 490 kts 93°
2026-04-16 01:39 39.87737 61.17130 35054 ft 491 kts 94°
2026-04-16 01:39 39.87523 61.26016 35062 ft 491 kts 94°
2026-04-16 01:40 39.87302 61.34922 35055 ft 492 kts 94°
2026-04-16 01:40 39.87106 61.43829 35059 ft 492 kts 93°
2026-04-16 01:41 39.86972 61.52738 35056 ft 493 kts 93°
2026-04-16 01:41 39.86836 61.61673 35060 ft 493 kts 94°
2026-04-16 01:42 39.86685 61.70554 35061 ft 494 kts 94°
2026-04-16 01:42 39.86520 61.79501 35064 ft 494 kts 94°
2026-04-16 01:43 39.86348 61.88472 35061 ft 495 kts 95°
2026-04-16 01:43 39.86169 61.97432 35061 ft 495 kts 95°
2026-04-16 01:44 39.85983 62.06408 35058 ft 496 kts 95°
2026-04-16 01:44 39.85792 62.15313 35060 ft 496 kts 95°
2026-04-16 01:45 39.85592 62.24300 35060 ft 497 kts 95°
2026-04-16 01:45 39.85385 62.33296 35058 ft 497 kts 96°
2026-04-16 01:46 39.85171 62.42295 35056 ft 497 kts 96°
2026-04-16 01:46 39.84950 62.51284 35058 ft 497 kts 96°
2026-04-16 01:47 39.84730 62.60159 35032 ft 476 kts 96°
2026-04-16 01:47 39.84624 62.64386 35030 ft 459 kts 97°
2026-04-16 01:47 39.84518 62.68456 35033 ft 443 kts 97°
2026-04-16 01:47 39.84415 62.72358 35034 ft 428 kts 97°
2026-04-16 01:48 39.84306 62.76248 35046 ft 423 kts 98°
2026-04-16 01:48 39.84041 62.83932 35073 ft 433 kts 98°
2026-04-16 01:49 39.83752 62.91916 35075 ft 444 kts 98°
2026-04-16 01:49 39.83468 62.99946 35059 ft 448 kts 98°
2026-04-16 01:50 39.83182 63.08035 35054 ft 448 kts 99°
2026-04-16 01:50 39.82886 63.16154 35053 ft 448 kts 99°
2026-04-16 01:51 39.82587 63.24212 35052 ft 447 kts 99°
2026-04-16 01:51 39.82172 63.32223 35049 ft 443 kts 102°
2026-04-16 01:52 39.81538 63.40153 35054 ft 441 kts 103°
2026-04-16 01:52 39.80889 63.48112 35051 ft 440 kts 103°
2026-04-16 01:53 39.80269 63.56007 35054 ft 438 kts 103°
2026-04-16 01:53 39.79658 63.63889 35049 ft 437 kts 103°
2026-04-16 01:54 39.79047 63.71753 35056 ft 436 kts 103°
2026-04-16 01:54 39.78431 63.79590 35054 ft 436 kts 103°
2026-04-16 01:55 39.77814 63.87382 35056 ft 436 kts 104°
2026-04-16 01:55 39.77185 63.95236 35070 ft 437 kts 104°
2026-04-16 01:56 39.76552 64.03086 35052 ft 439 kts 104°
2026-04-16 01:56 39.75906 64.11020 35051 ft 441 kts 104°
2026-04-16 01:57 39.75255 64.18962 35060 ft 442 kts 104°
2026-04-16 01:57 39.74599 64.26898 35056 ft 444 kts 104°
2026-04-16 01:58 39.73933 64.34894 34956 ft 442 kts 104°
2026-04-16 01:58 39.73634 64.38874 34250 ft 451 kts 101°
2026-04-16 01:58 39.73564 64.42936 33094 ft 468 kts 97°
2026-04-16 01:58 39.73591 64.47154 31719 ft 487 kts 96°
2026-04-16 01:59 39.73636 64.51529 30915 ft 490 kts 96°
2026-04-16 01:59 39.73686 64.55832 30472 ft 483 kts 95°
2026-04-16 01:59 39.73707 64.58709 30130 ft 472 kts 98°
2026-04-16 01:59 39.73363 64.64243 28988 ft 455 kts 107°
2026-04-16 02:00 39.72980 64.66883 28396 ft 448 kts 111°
2026-04-16 02:00 39.71785 64.71976 27249 ft 432 kts 120°
2026-04-16 02:00 39.70559 64.75468 26458 ft 418 kts 127°
2026-04-16 02:00 39.69609 64.77603 25971 ft 409 kts 132°
2026-04-16 02:01 39.67965 64.80576 25227 ft 396 kts 139°
2026-04-16 02:01 39.66133 64.83095 24498 ft 379 kts 150°
2026-04-16 02:01 39.63959 64.84911 23744 ft 358 kts 165°
2026-04-16 02:01 39.61627 64.85801 22932 ft 339 kts 180°
2026-04-16 02:02 39.59350 64.85765 22100 ft 324 kts 195°
2026-04-16 02:02 39.57263 64.84852 21291 ft 314 kts 211°
2026-04-16 02:02 39.55545 64.83150 20500 ft 309 kts 227°
2026-04-16 02:02 39.54364 64.80836 19717 ft 310 kts 244°
2026-04-16 02:03 39.53828 64.78126 18969 ft 315 kts 260°
2026-04-16 02:03 39.53963 64.75261 18245 ft 322 kts 272°
2026-04-16 02:03 39.54394 64.72446 17442 ft 321 kts 275°
2026-04-16 02:04 39.55347 64.66794 15854 ft 318 kts 276°
2026-04-16 02:04 39.56061 64.64089 15097 ft 325 kts 288°
2026-04-16 02:04 39.57205 64.61532 14352 ft 332 kts 302°
2026-04-16 02:04 39.59003 64.59551 13639 ft 344 kts 326°
2026-04-16 02:05 39.61254 64.58593 13020 ft 350 kts 349°
2026-04-16 02:05 39.63670 64.58773 12438 ft 351 kts 12°
2026-04-16 02:05 39.65907 64.60115 11804 ft 351 kts 35°
2026-04-16 02:05 39.67567 64.62374 11174 ft 347 kts 58°
2026-04-16 02:06 39.68455 64.65211 10557 ft 342 kts 82°
2026-04-16 02:06 39.68407 64.68188 10351 ft 318 kts 107°
2026-04-16 02:06 39.67524 64.70694 10085 ft 296 kts 132°
2026-04-16 02:06 39.66004 64.72414 9466 ft 285 kts 158°
2026-04-16 02:07 39.64160 64.73044 8880 ft 274 kts 184°
2026-04-16 02:07 39.62345 64.72519 8294 ft 264 kts 211°
2026-04-16 02:07 39.60987 64.70988 7729 ft 259 kts 238°
2026-04-16 02:07 39.60366 64.68819 7179 ft 257 kts 261°
2026-04-16 02:08 39.60187 64.66583 6676 ft 256 kts 264°
2026-04-16 02:08 39.60056 64.64303 6153 ft 255 kts 265°
2026-04-16 02:08 39.59932 64.62036 5672 ft 251 kts 265°
2026-04-16 02:08 39.59808 64.59769 5159 ft 249 kts 265°
2026-04-16 02:09 39.59681 64.57532 4649 ft 247 kts 265°
2026-04-16 02:09 39.59552 64.55336 4202 ft 242 kts 265°
2026-04-16 02:09 39.59420 64.53159 3710 ft 240 kts 265°
2026-04-16 02:09 39.59509 64.51036 3234 ft 237 kts 292°
2026-04-16 02:10 39.60487 64.49413 3158 ft 221 kts 307°
2026-04-16 02:10 39.61368 64.47894 3024 ft 205 kts 301°
2026-04-16 02:10 39.62145 64.46405 2907 ft 190 kts 300°
2026-04-16 02:10 39.63091 64.45291 2752 ft 189 kts 335°
2026-04-16 02:11 39.64413 64.45193 2621 ft 192 kts
2026-04-16 02:11 39.65693 64.45461 2513 ft 181 kts
2026-04-16 02:11 39.66897 64.45745 2479 ft 172 kts
2026-04-16 02:11 39.68067 64.46016 2416 ft 174 kts
2026-04-16 02:12 39.69176 64.46275 2220 ft 174 kts
2026-04-16 02:12 39.70352 64.46554 1947 ft 167 kts
2026-04-16 02:12 39.71453 64.46812 1780 ft 155 kts
2026-04-16 02:12 39.72496 64.47052 1543 ft 151 kts
2026-04-16 02:13 39.73550 64.47294 1323 ft 156 kts
2026-04-16 02:13 39.74605 64.47546 1098 ft 155 kts
2026-04-16 02:13 39.75683 64.47801 884 ft 154 kts
2026-04-16 02:13 39.76713 64.48039 750 ft 145 kts
2026-04-16 02:14 39.77546 64.48232 754 ft 92 kts 11°
2026-04-16 02:14 39.78001 64.48337 749 ft 48 kts 11°
2026-04-16 02:14 39.78224 64.48389 749 ft 21 kts
2026-04-16 02:14 39.78366 64.48421 751 ft 20 kts 10°
2026-04-16 02:15 39.78505 64.48454 753 ft 20 kts 11°
2026-04-16 02:15 39.78637 64.48484 754 ft 19 kts
2026-04-16 02:15 39.78761 64.48507 753 ft 16 kts 356°
2026-04-16 02:15 39.78840 64.48483 755 ft 9 kts 33°
2026-04-16 02:16 39.78822 64.48530 755 ft 8 kts 179°
2026-04-16 02:16 39.78756 64.48514 753 ft 14 kts 191°
2026-04-16 02:16 39.78628 64.48483 752 ft 24 kts 190°
2026-04-16 02:16 39.78450 64.48441 752 ft 26 kts 191°
2026-04-16 02:17 39.78276 64.48400 747 ft 25 kts 190°
2026-04-16 02:17 39.78105 64.48361 751 ft 24 kts 189°
2026-04-16 02:17 39.77945 64.48324 750 ft 23 kts 190°
2026-04-16 02:17 39.77794 64.48287 750 ft 22 kts 189°
2026-04-16 02:18 39.77636 64.48254 752 ft 23 kts 191°
2026-04-16 02:18 39.77480 64.48217 752 ft 23 kts 189°
2026-04-16 02:18 39.77321 64.48187 752 ft 23 kts 187°
2026-04-16 02:18 39.77165 64.48145 753 ft 23 kts 192°
2026-04-16 02:19 39.77012 64.48101 752 ft 22 kts 191°
2026-04-16 02:19 39.76866 64.48067 753 ft 21 kts 189°
2026-04-16 02:19 39.76718 64.48036 751 ft 21 kts 189°
2026-04-16 02:19 39.76577 64.48004 750 ft 20 kts 189°
2026-04-16 02:20 39.76443 64.47974 750 ft 20 kts 189°
2026-04-16 02:20 39.76309 64.47945 750 ft 19 kts 191°
2026-04-16 02:20 39.76228 64.47845 752 ft 13 kts 269°
2026-04-16 02:20 39.76197 64.47766 753 ft 10 kts 201°
2026-04-16 02:21 39.76137 64.47737 751 ft 7 kts 201°
2026-04-16 02:21 39.76125 64.47699 751 ft 4 kts 282°
2026-04-16 02:21 39.76147 64.47681 752 ft 4 kts 357°
2026-04-16 02:21 39.76172 64.47689 751 ft 4 kts 18°
2026-04-16 02:22 39.76190 64.47696 751 ft 1 kts 17°
2026-04-16 02:22 39.76190 64.47697 751 ft 0 kts 17°